Weather History for Weaverville, CA

Change the Weather History Date:

Wednesday, April 17, 2013

  Actual Average (KRDD) Record (KRDD)
Temperature  
Mean Temperature 44 °F -  
Max Temperature 62 °F 71 °F 84 °F (1999)
Min Temperature 26 °F 46 °F 34 °F (2006)
Degree Days  
Heating Degree Days 21    
Cooling Degree Days 0    
Moisture  
Dew Point 25 °F    
Average Humidity 54    
Maximum Humidity 86    
Minimum Humidity 20    
Precipitation  
Precipitation 0.00 in 0.09 in 2.33 in (1993)
Month to date precipitation 1.45  
Year to date precipitation 17.29  
Since 1 July precipitation 31.05  
Sea Level Pressure  
Sea Level Pressure 30.30 in    
Wind  
Wind Speed 2 mph (West)    
Max Wind Speed 8 mph    
Max Gust Speed -    
Visibility 10 miles    
Events      
T = Trace of Precipitation, MM = Missing Value Source: NWS Daily Summary

Daily Weather History Graph

Daily Weather History Graph

Search for Another Location

Airport:

Trip Planner

Search our weather history database for the weather conditions in past years. The results will help you decide how hot, cold, wet, or windy it might be!

Date:

Astronomy

Apr. 17, 2013 Rise Set
Actual Time 6:29 AM PDT 7:53 PM PDT
Civil Twilight 6:00 AM PDT 8:22 PM PDT
Nautical Twilight 5:26 AM PDT 8:56 PM PDT
Astronomical Twilight 4:50 AM PDT 9:33 PM PDT
Moon 11:47 AM PDT (4/17) 1:35 AM PDT (4/17)
Length of Visible Light 14h 21m
Length of Day
13h 24m
Waxing Crescent, 43% of the Moon is Illuminated
Apr 17
Waxing Crescent
Apr 18
First Quarter
Apr 25
Full
May 2
Last Quarter
May 9
New

Hourly Weather History & Observations

Time (PDT) Temp. Windchill Dew Point Humidity Pressure Visibility Wind Dir Wind Speed Gust Speed Precip Events Conditions
12:15 AM 32.0 °F 27.5 °F 23.0 °F 69% 30.27 in 10.0 mi NNE 4.6 mph - N/A   Clear
12:35 AM 32.0 °F - 23.0 °F 69% 30.27 in 10.0 mi Calm Calm - N/A   Scattered Clouds
12:55 AM 32.0 °F - 23.0 °F 69% 30.28 in 10.0 mi Calm Calm - N/A   Scattered Clouds
1:15 AM 32.0 °F - 24.8 °F 75% 30.28 in 10.0 mi Calm Calm - N/A   Partly Cloudy
1:35 AM 32.0 °F - 23.0 °F 69% 30.28 in 10.0 mi Calm Calm - N/A   Clear
1:55 AM 30.2 °F 26.7 °F 23.0 °F 75% 30.29 in 10.0 mi NNE 3.5 mph - N/A   Scattered Clouds
2:15 AM 30.2 °F - 23.0 °F 75% 30.29 in 10.0 mi Calm Calm - N/A   Mostly Cloudy
2:35 AM 28.4 °F - 23.0 °F 80% 30.28 in 10.0 mi Calm Calm - N/A   Scattered Clouds
2:55 AM 28.4 °F - 23.0 °F 80% 30.28 in 10.0 mi Calm Calm - N/A   Partly Cloudy
3:15 AM 28.4 °F - 23.0 °F 80% 30.28 in 10.0 mi Calm Calm - N/A   Partly Cloudy
3:35 AM 28.4 °F 24.6 °F 23.0 °F 80% 30.28 in 10.0 mi NNE 3.5 mph - N/A   Clear
3:55 AM 28.4 °F - 23.0 °F 80% 30.29 in 10.0 mi Calm Calm - N/A   Scattered Clouds
4:15 AM 28.4 °F - 23.0 °F 80% 30.30 in 10.0 mi Calm Calm - N/A   Mostly Cloudy
4:35 AM 28.4 °F - 23.0 °F 80% 30.30 in 10.0 mi Calm Calm - N/A   Mostly Cloudy
4:55 AM 26.6 °F - 23.0 °F 86% 30.30 in 10.0 mi Calm Calm - N/A   Partly Cloudy
5:15 AM 26.6 °F - 23.0 °F 86% 30.30 in 10.0 mi Calm Calm - N/A   Partly Cloudy
5:35 AM 26.6 °F - 23.0 °F 86% 30.31 in 10.0 mi Calm Calm - N/A   Scattered Clouds
5:55 AM 26.6 °F - 23.0 °F 86% 30.32 in 10.0 mi Calm Calm - N/A   Scattered Clouds
6:15 AM 26.6 °F - 23.0 °F 86% 30.32 in 10.0 mi Calm Calm - N/A   Scattered Clouds
6:35 AM 26.6 °F - 23.0 °F 86% 30.33 in 10.0 mi Calm Calm - N/A   Partly Cloudy
6:55 AM 26.6 °F - 23.0 °F 86% 30.34 in 10.0 mi Calm Calm - N/A   Clear
7:15 AM 26.6 °F - 23.0 °F 86% 30.34 in 10.0 mi Calm Calm - N/A   Clear
7:35 AM 28.4 °F - 23.0 °F 80% 30.35 in 10.0 mi Calm Calm - N/A   Clear
7:55 AM 30.2 °F - 23.0 °F 75% 30.36 in 10.0 mi Calm Calm - N/A   Clear
8:15 AM 32.0 °F - 23.0 °F 69% 30.36 in 10.0 mi Calm Calm - N/A   Clear
8:35 AM 35.6 °F - 24.8 °F 65% 30.36 in 10.0 mi Calm Calm - N/A   Clear
8:55 AM 37.4 °F 34.9 °F 26.6 °F 65% 30.37 in 10.0 mi SW 3.5 mph - N/A   Clear
9:15 AM 39.2 °F - 26.6 °F 61% 30.36 in 10.0 mi Calm Calm - N/A   Clear
9:35 AM 41.0 °F 38.0 °F 26.6 °F 57% 30.35 in 10.0 mi SW 4.6 mph - N/A   Clear
9:55 AM 44.6 °F 43.1 °F 26.6 °F 49% 30.35 in 10.0 mi South 3.5 mph - N/A   Clear
10:15 AM 46.4 °F 44.3 °F 26.6 °F 46% 30.35 in 10.0 mi SSW 4.6 mph - N/A   Clear
10:35 AM 48.2 °F - 26.6 °F 43% 30.34 in 10.0 mi SSW 3.5 mph - N/A   Clear
10:55 AM 50.0 °F - 24.8 °F 37% 30.34 in 10.0 mi WSW 8.1 mph - N/A   Clear
11:15 AM 51.8 °F - 24.8 °F 35% 30.34 in 10.0 mi SSW 4.6 mph - N/A   Clear
11:35 AM 50.0 °F - 24.8 °F 37% 30.34 in 10.0 mi South 5.8 mph - N/A   Clear
11:55 AM 51.8 °F - 24.8 °F 35% 30.34 in 10.0 mi WSW 6.9 mph - N/A   Clear
12:15 PM 53.6 °F - 24.8 °F 33% 30.33 in 10.0 mi SSW 5.8 mph - N/A   Clear
12:35 PM 53.6 °F - 24.8 °F 33% 30.33 in 10.0 mi WSW 6.9 mph - N/A   Clear
12:55 PM 55.4 °F - 23.0 °F 29% 30.32 in 10.0 mi SSW 3.5 mph - N/A   Clear
1:35 PM 55.4 °F - 21.2 °F 26% 30.30 in 10.0 mi Calm Calm - N/A   Clear
1:55 PM 57.2 °F - 23.0 °F 27% 30.30 in 10.0 mi SW 8.1 mph - N/A   Clear
2:15 PM 57.2 °F - 21.2 °F 25% 30.29 in 10.0 mi NNW 6.9 mph - N/A   Clear
2:35 PM 59.0 °F - 23.0 °F 25% 30.28 in 10.0 mi SSW 4.6 mph - N/A   Clear
2:55 PM 59.0 °F - 23.0 °F 25% 30.28 in 10.0 mi South 4.6 mph - N/A   Clear
3:15 PM 59.0 °F - 23.0 °F 25% 30.27 in 10.0 mi SSW 8.1 mph - N/A   Clear
3:35 PM 60.8 °F - 23.0 °F 23% 30.27 in 10.0 mi Calm Calm - N/A   Clear
3:55 PM 60.8 °F - 24.8 °F 25% 30.26 in 10.0 mi West 4.6 mph - N/A   Clear
4:15 PM 62.6 °F - 23.0 °F 22% 30.25 in 10.0 mi West 5.8 mph - N/A   Clear
4:35 PM 62.6 °F - 23.0 °F 22% 30.25 in 10.0 mi West 5.8 mph - N/A   Clear
4:55 PM 62.6 °F - 21.2 °F 20% 30.24 in 10.0 mi Calm Calm - N/A   Clear
5:15 PM 62.6 °F - 24.8 °F 24% 30.25 in 10.0 mi West 5.8 mph - N/A   Clear
5:35 PM 62.6 °F - 23.0 °F 22% 30.24 in 10.0 mi Calm Calm - N/A   Clear
5:55 PM 62.6 °F - 24.8 °F 24% 30.24 in 10.0 mi West 3.5 mph - N/A   Clear
6:15 PM 62.6 °F - 26.6 °F 26% 30.24 in 10.0 mi West 4.6 mph - N/A   Clear
6:35 PM 60.8 °F - 28.4 °F 29% 30.25 in 10.0 mi WNW 6.9 mph - N/A   Clear
7:15 PM 59.0 °F - 32.0 °F 36% 30.25 in 10.0 mi Calm Calm - N/A   Clear
7:35 PM 55.4 °F - 28.4 °F 36% 30.26 in 10.0 mi NE 4.6 mph - N/A   Clear
7:55 PM 53.6 °F - 26.6 °F 35% 30.27 in 10.0 mi NNE 3.5 mph - N/A   Clear
8:15 PM 50.0 °F - 28.4 °F 43% 30.27 in 10.0 mi North 3.5 mph - N/A   Clear
8:35 PM 48.2 °F - 28.4 °F 46% 30.28 in 10.0 mi North 3.5 mph - N/A   Scattered Clouds
8:55 PM 46.4 °F 45.2 °F 28.4 °F 50% 30.29 in 10.0 mi North 3.5 mph - N/A   Scattered Clouds
9:15 PM 44.6 °F - 28.4 °F 53% 30.30 in 10.0 mi Calm Calm - N/A   Mostly Cloudy
9:35 PM 44.6 °F - 28.4 °F 53% 30.32 in 10.0 mi Calm Calm - N/A   Mostly Cloudy
9:55 PM 44.6 °F 42.2 °F 28.4 °F 53% 30.32 in 10.0 mi North 4.6 mph - N/A   Overcast
10:15 PM 41.0 °F 39.0 °F 28.4 °F 61% 30.32 in 10.0 mi NNE 3.5 mph - N/A   Overcast
10:35 PM 41.0 °F - 28.4 °F 61% 30.33 in 10.0 mi Calm Calm - N/A   Scattered Clouds
10:55 PM 41.0 °F - 28.4 °F 61% 30.33 in 10.0 mi Calm Calm - N/A   Scattered Clouds
11:15 PM 39.2 °F - 28.4 °F 65% 30.33 in 10.0 mi Calm Calm - N/A   Mostly Cloudy
11:35 PM 39.2 °F - 30.2 °F 70% 30.33 in 10.0 mi Calm Calm - N/A   Mostly Cloudy
11:55 PM 37.4 °F - 30.2 °F 75% 30.34 in 10.0 mi Calm Calm - N/A   Mostly Cloudy